Falfurrias, TX

1:15 AM CST on December 07, 2019 (GMT -0600)
Falfurrias

Weather History for KBKS - October, 2019

Change the Weather History Date:

Monday, October 21, 2019

  Actual Average (WUND) Record (WUND)
Temperature  
Mean Temperature 78 °F -  
Max Temperature 90 °F - - (-1)
Min Temperature 66 °F - - (-1)
Cooling Degree Days 14    
Growing Degree Days 28 (Base 50)    
Moisture  
Dew Point 67 °F    
Average Humidity 64    
Maximum Humidity 86    
Minimum Humidity 32    
Precipitation  
Precipitation 0.00 in - - ()
Sea Level Pressure  
Sea Level Pressure 29.80 in    
Wind  
Wind Speed 8 mph ()    
Max Wind Speed 17 mph    
Max Gust Speed 23 mph    
Visibility 9.7 miles    
Events      
Averages and records for this station are not official NWS values.
T = Trace of Precipitation, MM = Missing Value Source: Averaged Metar Reports

Daily Weather History Graph

Daily Weather History Graph

Search for Another Location

Airport or City:

Astronomy

Oct. 21, 2019 Rise Set
Actual Time 7:35 AM CDT 6:58 PM CDT
Civil Twilight 7:11 AM CDT 7:21 PM CDT
Nautical Twilight 6:44 AM CDT 7:49 PM CDT
Astronomical Twilight 6:17 AM CDT 8:16 PM CDT
Moon 12:29 AM CDT (10/21) 2:36 PM CDT (10/21)
Length of Visible Light 12h 09m
Length of Day
11h 22m
Waning Gibbous, 48% of the Moon is Illuminated
Oct 21
Waning Gibbous
Oct 27
New
Nov 4
First Quarter
Nov 12
Full
Nov 19
Last Quarter

Hourly Weather History & Observations

Time (CDT) Temp. Heat Index Dew Point Humidity Pressure Visibility Wind Dir Wind Speed Gust Speed Precip Events Conditions
12:15 AM 83.8 °F 94.3 °F 77.9 °F 82% 29.74 in 10.0 mi SSE 13.8 mph 19.6 mph N/A   Overcast
12:35 AM 83.7 °F 94.1 °F 77.9 °F 83% 29.73 in 10.0 mi South 12.7 mph - N/A   Overcast
12:55 AM 83.5 °F 93.6 °F 77.9 °F 83% 29.71 in 10.0 mi SSE 11.5 mph - N/A   Overcast
1:15 AM 83.3 °F 93.5 °F 77.9 °F 84% 29.71 in 7.0 mi SSE 11.5 mph 16.1 mph N/A   Overcast
1:35 AM 83.5 °F 93.6 °F 77.9 °F 83% 29.70 in 7.0 mi SSE 12.7 mph - N/A   Overcast
1:55 AM 83.3 °F 93.5 °F 78.1 °F 84% 29.70 in 7.0 mi SSE 8.1 mph - N/A   Overcast
2:15 AM 83.3 °F 93.5 °F 78.1 °F 84% 29.69 in 7.0 mi SSE 11.5 mph 16.1 mph N/A   Mostly Cloudy
2:35 AM 83.1 °F 92.9 °F 77.9 °F 84% 29.68 in 7.0 mi SSE 9.2 mph - N/A   Mostly Cloudy
2:55 AM 82.6 °F 91.4 °F 77.2 °F 84% 29.67 in 7.0 mi SSE 9.2 mph - N/A   Scattered Clouds
3:15 AM 81.9 °F 88.9 °F 75.9 °F 82% 29.68 in 10.0 mi SSE 9.2 mph - N/A   Scattered Clouds
3:35 AM 81.5 °F 87.8 °F 75.2 °F 81% 29.69 in 10.0 mi SSE 13.8 mph 17.3 mph N/A   Clear
4:15 AM 79.9 °F - 72.0 °F 77% 29.68 in 10.0 mi South 15.0 mph 21.9 mph N/A   Clear
4:35 AM 79.2 °F - 72.5 °F 80% 29.68 in 10.0 mi South 12.7 mph - N/A   Clear
4:55 AM 78.8 °F - 72.5 °F 81% 29.69 in 10.0 mi South 10.4 mph - N/A   Clear
5:15 AM 78.3 °F - 72.5 °F 82% 29.69 in 10.0 mi SSW 6.9 mph - N/A   Clear
5:35 AM 77.9 °F - 72.5 °F 83% 29.69 in 10.0 mi South 8.1 mph - N/A   Clear
5:55 AM 77.7 °F - 72.5 °F 84% 29.69 in 10.0 mi South 6.9 mph - N/A   Clear
6:15 AM 77.2 °F - 72.5 °F 85% 29.69 in 10.0 mi SSE 5.8 mph - N/A   Clear
6:35 AM 77.0 °F - 72.5 °F 86% 29.69 in 10.0 mi SSE 5.8 mph - N/A   Clear
6:55 AM 76.6 °F - 72.1 °F 86% 29.70 in 10.0 mi SSE 4.6 mph - N/A   Clear
7:15 AM 76.5 °F - 72.0 °F 86% 29.70 in 10.0 mi SE 3.5 mph - N/A   Scattered Clouds
7:35 AM 76.8 °F - 72.3 °F 86% 29.73 in 10.0 mi NNW 6.9 mph - N/A   Mostly Cloudy
7:55 AM 77.5 °F - 72.5 °F 84% 29.75 in 10.0 mi North 3.5 mph - N/A   Overcast
8:15 AM 78.1 °F - 72.9 °F 84% 29.76 in 10.0 mi North 3.5 mph - N/A   Overcast
8:35 AM 78.8 °F - 73.0 °F 82% 29.77 in 10.0 mi NNW 4.6 mph - N/A   Overcast
8:55 AM 79.0 °F - 73.4 °F 83% 29.79 in 10.0 mi North 3.5 mph - N/A   Overcast
9:15 AM 79.7 °F - 73.4 °F 81% 29.80 in 10.0 mi North 5.8 mph - N/A   Overcast
9:35 AM 80.2 °F 84.7 °F 73.6 °F 80% 29.80 in 10.0 mi North 6.9 mph - N/A   Overcast
9:55 AM 80.8 °F 85.9 °F 73.9 °F 80% 29.81 in 10.0 mi North 4.6 mph - N/A   Overcast
10:15 AM 81.5 °F 87.2 °F 74.1 °F 78% 29.81 in 10.0 mi North 3.5 mph - N/A   Overcast
10:35 AM 82.4 °F 88.7 °F 74.3 °F 76% 29.82 in 10.0 mi Calm Calm - N/A   Overcast
10:55 AM 83.7 °F 91.0 °F 74.5 °F 74% 29.81 in 10.0 mi Calm Calm - N/A   Mostly Cloudy
11:15 AM 84.7 °F 92.5 °F 74.3 °F 71% 29.82 in 10.0 mi Calm Calm - N/A   Clear
11:35 AM 86.2 °F 94.6 °F 74.3 °F 68% 29.81 in 10.0 mi Calm Calm - N/A   Clear
11:55 AM 89.1 °F 98.0 °F 73.9 °F 61% 29.81 in 10.0 mi North 3.5 mph - N/A   Clear
12:15 PM 88.3 °F 97.4 °F 74.3 °F 63% 29.82 in 10.0 mi NNW 9.2 mph - N/A   Mostly Cloudy
12:35 PM 88.0 °F 92.9 °F 69.8 °F 55% 29.81 in 10.0 mi North 11.5 mph 17.3 mph N/A   Mostly Cloudy
1:15 PM 88.3 °F 88.9 °F 62.6 °F 42% 29.81 in 10.0 mi NE 16.1 mph - N/A   Clear
1:35 PM 88.5 °F 89.2 °F 62.6 °F 42% 29.81 in 10.0 mi North 12.7 mph - N/A   Clear
1:55 PM 89.6 °F 90.4 °F 63.3 °F 41% 29.81 in 10.0 mi NNE 12.7 mph - N/A   Scattered Clouds
2:15 PM 88.5 °F 89.5 °F 63.3 °F 43% 29.81 in 10.0 mi NE 11.5 mph - N/A   Mostly Cloudy
2:35 PM 88.9 °F 89.4 °F 62.1 °F 41% 29.80 in 10.0 mi NE 12.7 mph 18.4 mph N/A   Scattered Clouds
2:55 PM 89.2 °F 89.3 °F 61.5 °F 39% 29.80 in 10.0 mi NE 13.8 mph - N/A   Clear
3:15 PM 90.7 °F 90.4 °F 60.4 °F 36% 29.80 in 10.0 mi North 17.3 mph 21.9 mph N/A   Scattered Clouds
3:35 PM 89.4 °F 89.0 °F 60.1 °F 37% 29.80 in 10.0 mi NE 13.8 mph 23.0 mph N/A   Scattered Clouds
3:55 PM 89.2 °F 88.7 °F 60.1 °F 37% 29.80 in 10.0 mi NNE 8.1 mph - N/A   Clear
4:15 PM 88.9 °F 88.0 °F 59.0 °F 36% 29.80 in 10.0 mi North 11.5 mph 16.1 mph N/A   Clear
4:35 PM 88.5 °F 88.1 °F 59.9 °F 38% 29.80 in 10.0 mi NNE 10.4 mph - N/A   Clear
4:55 PM 89.6 °F 88.9 °F 59.0 °F 36% 29.80 in 10.0 mi NNE 9.2 mph - N/A   Clear
5:15 PM 89.6 °F 88.4 °F 57.4 °F 34% 29.80 in 10.0 mi NE 9.2 mph - N/A   Clear
5:35 PM 89.4 °F 87.7 °F 55.8 °F 32% 29.81 in 10.0 mi NE 4.6 mph - N/A   Clear
5:55 PM 88.7 °F 86.9 °F 55.0 °F 32% 29.81 in 10.0 mi NNE 5.8 mph - N/A   Clear
6:15 PM 87.4 °F 85.7 °F 54.7 °F 33% 29.82 in 10.0 mi NE 9.2 mph - N/A   Clear
6:35 PM 87.1 °F 85.1 °F 54.0 °F 32% 29.83 in 10.0 mi NE 9.2 mph - N/A   Clear
6:55 PM 85.5 °F 83.8 °F 54.0 °F 34% 29.84 in 10.0 mi NNE 5.8 mph - N/A   Clear
7:15 PM 83.7 °F 82.4 °F 54.1 °F 36% 29.85 in 10.0 mi NNE 4.6 mph - N/A   Clear
7:35 PM 81.9 °F 81.1 °F 53.6 °F 38% 29.87 in 10.0 mi NNE 5.8 mph - N/A   Clear
7:55 PM 81.0 °F - 51.8 °F 36% 29.88 in 10.0 mi NNE 5.8 mph - N/A   Clear
8:15 PM 78.4 °F - 56.5 °F 47% 29.90 in 10.0 mi East 3.5 mph - N/A   Clear
8:35 PM 77.2 °F - 57.0 °F 50% 29.91 in 10.0 mi Calm Calm - N/A   Clear
8:55 PM 75.9 °F - 57.6 °F 53% 29.92 in 10.0 mi ENE 4.6 mph - N/A   Clear
9:15 PM 73.8 °F - 59.2 °F 60% 29.93 in 10.0 mi NE 3.5 mph - N/A   Clear
9:55 PM 71.8 °F - 62.6 °F 73% 29.94 in 10.0 mi NNE 4.6 mph - N/A   Clear
10:15 PM 70.7 °F - 61.3 °F 72% 29.95 in 10.0 mi North 4.6 mph - N/A   Clear
10:35 PM 69.4 °F - 58.1 °F 67% 29.96 in 10.0 mi North 6.9 mph - N/A   Clear
10:55 PM 68.7 °F - 58.6 °F 70% 29.97 in 10.0 mi NNE 4.6 mph - N/A   Clear
11:15 PM 68.4 °F - 58.1 °F 70% 29.98 in 10.0 mi NNE 3.5 mph - N/A   Clear
11:35 PM 67.3 °F - 55.6 °F 66% 29.99 in 10.0 mi NNE 3.5 mph - N/A   Clear
11:55 PM 66.6 °F - 52.5 °F 61% 30.00 in 10.0 mi NNE 3.5 mph - N/A   Clear